CW4647 Weather Reports


time (UTC)temp
F
wind
direction
speed
knots
gust
knots
rain 1hr
in
rain 24hr
in
rain mn
in
humidity
%
barometer
mb
20260504214057 84 76 5.2 15.6 0.00 0.00 0.00 73 1012.0
20260504213555 84 101 8.7 15.6 0.00 0.00 0.00 74 1011.9
20260504213058 83 69 8.7 13.9 0.00 0.00 0.00 74 1011.9
20260504212557 83 122 7.0 13.0 0.00 0.00 0.00 75 1011.8
20260504212055 83 89 7.0 13.0 0.00 0.00 0.00 76 1011.9
20260504211558 83 57 7.0 13.9 0.00 0.00 0.00 76 1011.9
20260504211058 83 92 8.7 15.6 0.00 0.00 0.00 76 1011.9
20260504210555 82 76 6.1 15.6 0.00 0.00 0.00 77 1011.9
20260504210110 82 106 4.3 13.0 0.00 0.00 0.00 77 1011.8
20260504205557 82 68 8.7 13.0 0.00 0.00 0.00 77 1011.7
20260504205058 81 103 7.8 13.0 0.00 0.00 0.00 77 1011.6
20260504204602 81 79 7.8 13.0 0.00 0.00 0.00 78 1011.6
20260504204055 81 76 6.1 13.9 0.00 0.00 0.00 78 1011.5
20260504203557 81 78 7.0 14.8 0.00 0.00 0.00 78 1011.4
20260504203054 81 78 7.0 14.8 0.00 0.00 0.00 78 1011.4
20260504202557 81 78 5.2 13.9 0.00 0.00 0.00 78 1011.2
20260504202059 81 75 7.8 19.1 0.00 0.00 0.00 79 1011.2
20260504201607 81 59 7.0 19.1 0.00 0.00 0.00 79 1011.2
20260504201057 81 94 6.1 13.9 0.00 0.00 0.00 79 1011.1
20260504200555 81 80 7.0 14.8 0.00 0.00 0.00 79 1011.0
20260504200100 81 82 7.0 14.8 0.00 0.00 0.00 79 1011.0
20260504195555 81 65 7.8 13.9 0.00 0.00 0.00 80 1011.0
20260504195058 81 89 7.0 13.9 0.00 0.00 0.00 80 1011.0
20260504194608 81 90 7.8 13.9 0.00 0.00 0.00 80 1011.0
20260504194055 81 83 6.1 12.2 0.00 0.00 0.00 80 1010.9
20260504193555 81 82 7.0 12.2 0.00 0.00 0.00 80 1010.8
20260504193056 81 74 6.1 12.2 0.00 0.00 0.00 81 1010.8
20260504192555 81 48 4.3 8.7 0.00 0.00 0.00 82 1010.8
20260504192057 81 92 4.3 8.7 0.00 0.00 0.00 82 1010.8
20260504191558 81 56 4.3 9.6 0.00 0.00 0.00 82 1010.7
20260504191057 81 76 4.3 9.6 0.00 0.00 0.00 82 1010.8
20260504190600 81 88 2.6 9.6 0.00 0.00 0.00 82 1010.8
20260504190125 81 78 3.5 8.7 0.00 0.00 0.00 82 1010.7
20260504185556 81 88 5.2 10.4 0.00 0.00 0.00 82 1010.4
20260504185100 81 102 3.5 10.4 0.00 0.00 0.00 82 1010.5
20260504184559 81 74 6.1 10.4 0.00 0.00 0.00 82 1010.4
20260504184102 81 84 3.5 13.0 0.00 0.00 0.00 82 1010.4
20260504183600 81 58 5.2 13.0 0.00 0.00 0.00 82 1010.3
20260504183058 81 76 7.8 13.0 0.00 0.00 0.00 82 1010.4
20260504182601 81 94 7.8 12.2 0.00 0.00 0.00 82 1010.4
20260504182059 81 94 3.5 9.6 0.00 0.00 0.00 82 1010.5
20260504181604 80 95 4.3 10.4 0.00 0.00 0.00 82 1010.4
20260504181059 80 94 5.2 10.4 0.00 0.00 0.00 82 1010.3
20260504180600 81 82 6.1 10.4 0.00 0.00 0.00 82 1010.3
20260504180155 81 80 3.5 10.4 0.00 0.00 0.00 82 1010.4
20260504175559 81 81 5.2 11.3 0.00 0.00 0.00 81 1010.4
20260504175101 81 103 6.1 11.3 0.00 0.00 0.00 81 1010.3
20260504174602 81 126 6.1 14.8 0.00 0.00 0.00 80 1010.4
20260504174100 81 92 7.0 14.8 0.00 0.00 0.00 79 1010.5
20260504173559 82 86 6.1 11.3 0.00 0.00 0.00 79 1010.6
20260504173125 82 88 4.3 11.3 0.00 0.00 0.00 79 1010.6
20260504172559 81 86 7.8 11.3 0.00 0.00 0.00 79 1010.5
20260504172059 82 99 4.3 9.6 0.00 0.00 0.00 79 1010.6
20260504171602 82 77 5.2 9.6 0.00 0.00 0.00 79 1010.7
20260504171100 82 90 6.1 10.4 0.00 0.00 0.00 78 1010.7
20260504170559 82 80 6.1 13.0 0.00 0.00 0.00 78 1010.8
20260504151058 82 78 7.8 12.2 0.00 0.03 0.00 78 1011.5
20260504150556 82 103 4.3 11.3 0.00 0.03 0.00 79 1011.5
20260504141058 82 82 7.0 16.5 0.00 0.03 0.00 80 1012.1
20260504140557 82 66 5.2 12.2 0.00 0.03 0.00 80 1012.2
20260504140119 82 59 7.0 15.6 0.00 0.03 0.00 80 1012.2
20260504130557 82 80 10.4 18.2 0.00 0.03 0.03 79 1012.8
20260504120113 83 103 6.1 18.2 0.00 0.03 0.03 77 1012.4
20260504110557 83 111 7.0 12.2 0.00 0.03 0.03 79 1012.0
20260504100555 83 63 8.7 17.4 0.00 0.03 0.03 77 1011.6
20260504081558 84 69 8.7 16.5 0.00 0.03 0.03 77 1010.8
20260504081057 84 86 6.1 16.5 0.00 0.03 0.03 77 1010.6
20260504080557 83 85 9.6 16.5 0.00 0.03 0.03 77 1010.6
20260504050558 85 102 11.3 23.5 0.00 0.03 0.03 72 1010.2
20260504050131 86 89 15.6 23.5 0.00 0.03 0.03 71 1010.1
20260504045557 87 81 11.3 22.6 0.00 0.03 0.03 72 1010.1
20260504045058 87 119 10.4 22.6 0.00 0.03 0.03 72 1010.1
20260504044559 86 77 11.3 18.2 0.00 0.03 0.03 73 1010.2
20260504044059 85 126 8.7 19.1 0.00 0.03 0.03 75 1010.2
20260504043556 85 112 12.2 20.0 0.00 0.03 0.03 75 1010.3
20260504043101 85 105 13.0 21.7 0.00 0.03 0.03 75 1010.3
20260504042558 86 59 13.9 21.7 0.00 0.03 0.03 72 1010.3
20260504042057 87 93 11.3 21.7 0.00 0.03 0.03 71 1010.3
20260504041557 86 102 12.2 21.7 0.00 0.03 0.03 71 1010.3
20260504041058 86 82 12.2 21.7 0.00 0.03 0.03 71 1010.3
20260504040558 87 100 9.6 17.4 0.00 0.03 0.03 70 1010.4
20260504040105 87 82 9.6 20.0 0.00 0.03 0.03 72 1010.4
20260504035558 86 81 13.9 20.0 0.00 0.03 0.03 72 1010.5
20260504035101 87 73 10.4 19.1 0.00 0.03 0.03 72 1010.5
20260504034600 86 88 13.0 20.0 0.00 0.03 0.03 71 1010.6
20260504034056 87 56 9.6 20.0 0.00 0.03 0.03 72 1010.6
20260504033556 86 61 9.6 20.0 0.00 0.03 0.03 72 1010.7
20260504033058 86 105 12.2 19.1 0.00 0.03 0.03 73 1010.8
20260504032559 86 93 11.3 21.7 0.00 0.03 0.03 72 1010.9
20260504032103 86 90 11.3 21.7 0.00 0.03 0.03 72 1010.9
20260504031623 86 94 13.0 23.5 0.00 0.03 0.03 72 1011.0
20260504031100 86 81 9.6 23.5 0.00 0.03 0.03 73 1011.0
20260504030559 85 88 13.9 23.5 0.00 0.03 0.03 73 1011.0
20260504030056 86 76 11.3 20.9 0.00 0.03 0.03 73 1011.0
20260504025559 -52 66 11.3 20.9 0.00 0.03 0.03 1011.2
20260504025057 86 76 12.2 18.2 0.00 0.03 0.03 73 1011.3
20260504024601 86 51 11.3 19.1 0.00 0.03 0.03 72 1011.3
20260504024055 86 107 7.8 20.0 0.00 0.03 0.03 72 1011.4
20260504023558 86 81 11.3 20.0 0.00 0.03 0.03 72 1011.6
20260504023059 86 86 9.6 24.3 0.00 0.03 0.03 73 1011.6
20260504022559 86 87 12.2 24.3 0.00 0.03 0.03 72 1011.6
20260504022101 86 78 12.2 22.6 0.00 0.03 0.03 71 1011.6
20260504021609 86 96 9.6 20.9 0.00 0.03 0.03 71 1011.6
20260504021101 86 97 10.4 20.9 0.00 0.03 0.03 72 1011.7
20260504020601 86 108 13.9 20.9 0.00 0.03 0.03 73 1011.6
20260504020105 86 67 11.3 22.6 0.00 0.03 0.03 72 1011.7
20260504015556 86 73 11.3 22.6 0.00 0.03 0.03 73 1011.7
20260504015056 86 117 11.3 20.0 0.00 0.03 0.03 72 1011.9
20260504014600 86 110 9.6 20.9 0.00 0.03 0.03 73 1011.8
20260504014055 86 76 10.4 24.3 0.00 0.03 0.03 73 1011.8
20260504013557 86 75 11.3 24.3 0.00 0.03 0.03 73 1011.9
20260504013105 85 55 12.2 24.3 0.00 0.03 0.03 72 1011.9
20260504012559 86 83 10.4 22.6 0.00 0.03 0.03 73 1012.0
20260504012056 86 94 13.0 22.6 0.00 0.03 0.03 72 1012.1
20260504011558 86 77 8.7 24.3 0.00 0.03 0.03 71 1012.1
20260504011055 86 104 13.9 24.3 0.00 0.03 0.03 70 1012.1
20260504010556 87 113 9.6 18.2 0.00 0.03 0.03 71 1012.1
20260504010110 86 90 12.2 21.7 0.00 0.03 0.03 71 1012.2
20260504005555 86 108 11.3 21.7 0.00 0.03 0.03 72 1012.2
20260504005057 86 63 12.2 23.5 0.00 0.03 0.03 72 1012.2
20260504004558 85 92 14.8 23.5 0.00 0.03 0.03 74 1012.3
20260504004057 85 59 11.3 20.9 0.00 0.03 0.03 74 1012.3
20260504003558 86 92 12.2 18.2 0.00 0.03 0.03 74 1012.3
20260504003058 86 75 7.8 15.6 0.00 0.03 0.03 73 1012.4
20260504002557 86 102 6.1 15.6 0.00 0.03 0.03 74 1012.4
20260504002101 86 97 8.7 15.6 0.00 0.03 0.03 73 1012.4
20260504001611 85 123 9.6 20.9 0.00 0.03 0.03 74 1012.4
20260504001056 85 84 12.2 20.9 0.00 0.03 0.03 74 1012.3
20260504000557 85 109 13.0 20.9 0.00 0.03 0.03 74 1012.4
20260504000058 85 102 9.6 18.2 0.00 0.03 0.03 74 1012.3
20260503235557 85 89 10.4 17.4 0.00 0.03 0.03 74 1012.4
20260503235056 85 114 10.4 17.4 0.00 0.03 0.03 75 1012.3
20260503234557 85 82 7.8 18.2 0.00 0.03 0.03 76 1012.3
20260503234057 85 98 9.6 18.2 0.00 0.03 0.03 75 1012.2
20260503233558 85 78 9.6 18.2 0.00 0.03 0.03 74 1012.2
20260503233056 85 94 9.6 17.4 0.00 0.03 0.03 74 1012.2
20260503232557 85 67 10.4 17.4 0.00 0.03 0.03 74 1012.3
20260503232057 85 84 8.7 18.2 0.00 0.03 0.03 74 1012.3
20260503231557 85 87 10.4 18.2 0.00 0.03 0.03 74 1012.3
20260503231059 85 81 9.6 16.5 0.00 0.03 0.03 73 1012.2
20260503230559 85 83 10.4 20.9 0.00 0.03 0.03 74 1012.2
20260503225559 85 92 6.1 16.5 0.00 0.03 0.03 75 1012.3
20260503225102 85 90 7.8 20.0 0.00 0.03 0.03 75 1012.3
20260503224608 85 118 8.7 20.0 0.00 0.03 0.03 75 1012.3
20260503224100 85 98 8.7 18.2 0.00 0.03 0.03 75 1012.2
20260503223558 85 118 10.4 18.2 0.00 0.03 0.03 75 1012.2
20260503223109 85 93 10.4 18.2 0.00 0.03 0.03 75 1012.1
20260503222601 85 81 9.6 19.1 0.00 0.03 0.03 76 1012.1
20260503222057 85 94 10.4 19.1 0.00 0.03 0.03 75 1012.0
20260503221559 85 49 12.2 19.1 0.00 0.03 0.03 75 1011.9
20260503221103 85 95 10.4 19.1 0.00 0.03 0.03 76 1012.0
20260503220559 84 90 13.0 19.1 0.00 0.03 0.03 76 1011.9
20260503220109 84 82 9.6 17.4 0.00 0.03 0.03 76 1012.0
20260503215559 84 95 8.7 15.6 0.00 0.03 0.03 77 1011.9
20260503215100 84 107 9.6 16.5 0.00 0.03 0.03 77 1011.9
20260503214559 84 65 9.6 17.4 0.00 0.03 0.03 77 1011.8